SVA711 OERK-OPKC

Flight info

Callsign SVA711
Flight time N/A
Altitude 35000
Route RAPMA1E/15L RAPMA DCT KUVSO DCT KATIT DCT MIDGU M440 TULBU G652 SODEB G216 LAKIV LAKIV1B
Aircraft A339/H-SADE1E2E3GHIJ3J5M1P2RWXY/LB2D1

Departure

Time N/A
Airport King Khalid International Airport (OERK)

Arrival

Time 2026-05-07 14:13
Airport Jinnah International Airport (OPKC)
Time Latitude Longitude Altitude Speed Heading
2026-05-07 13:06 23.48440 58.64634 34763 ft 506 kts 67°
2026-05-07 13:06 23.49745 58.68197 34762 ft 506 kts 67°
2026-05-07 13:06 23.52352 58.75323 34759 ft 507 kts 67°
2026-05-07 13:07 23.54961 58.82463 34759 ft 506 kts 67°
2026-05-07 13:07 23.57564 58.89604 34760 ft 506 kts 67°
2026-05-07 13:08 23.60145 58.96693 34759 ft 506 kts 67°
2026-05-07 13:08 23.62741 59.03836 34759 ft 506 kts 67°
2026-05-07 13:09 23.65333 59.10981 34765 ft 506 kts 67°
2026-05-07 13:09 23.67925 59.18137 34764 ft 506 kts 67°
2026-05-07 13:10 23.70511 59.25287 34770 ft 507 kts 67°
2026-05-07 13:10 23.73094 59.32440 34769 ft 507 kts 67°
2026-05-07 13:11 23.75661 59.39563 34772 ft 507 kts 68°
2026-05-07 13:11 23.78241 59.46731 34765 ft 507 kts 68°
2026-05-07 13:12 23.80224 59.54118 34766 ft 508 kts 79°
2026-05-07 13:12 23.81405 59.61739 34760 ft 509 kts 79°
2026-05-07 13:13 23.82620 59.69352 34763 ft 509 kts 79°
2026-05-07 13:13 23.83832 59.76966 34763 ft 509 kts 79°
2026-05-07 13:14 23.85039 59.84595 34766 ft 509 kts 79°
2026-05-07 13:14 23.86244 59.92227 34761 ft 510 kts 79°
2026-05-07 13:15 23.87447 59.99869 34760 ft 510 kts 79°
2026-05-07 13:15 23.88646 60.07506 34761 ft 510 kts 79°
2026-05-07 13:16 23.89841 60.15151 34761 ft 510 kts 79°
2026-05-07 13:16 23.91025 60.22756 34760 ft 510 kts 79°
2026-05-07 13:17 23.92214 60.30413 34760 ft 510 kts 79°
2026-05-07 13:17 23.93400 60.38074 34762 ft 510 kts 79°
2026-05-07 13:18 23.94580 60.45728 34762 ft 510 kts 79°
2026-05-07 13:18 23.95739 60.53263 34757 ft 510 kts 79°
2026-05-07 13:19 23.96922 60.60988 34756 ft 510 kts 79°
2026-05-07 13:19 23.98093 60.68660 34759 ft 511 kts 79°
2026-05-07 13:20 23.99259 60.76320 34755 ft 511 kts 79°
2026-05-07 13:20 24.00421 60.83989 34747 ft 511 kts 79°
2026-05-07 13:21 24.01579 60.91654 34754 ft 511 kts 79°
2026-05-07 13:21 24.02735 60.99332 34750 ft 511 kts 79°
2026-05-07 13:22 24.03879 61.06955 34747 ft 511 kts 79°
2026-05-07 13:22 24.05027 61.14636 34746 ft 511 kts 79°
2026-05-07 13:23 24.06171 61.22313 34748 ft 511 kts 79°
2026-05-07 13:23 24.07311 61.29988 34747 ft 511 kts 79°
2026-05-07 13:24 24.08448 61.37670 34747 ft 511 kts 79°
2026-05-07 13:24 24.09568 61.45303 34741 ft 511 kts 79°
2026-05-07 13:25 24.10691 61.52978 34744 ft 511 kts 79°
2026-05-07 13:25 24.11813 61.60666 34739 ft 511 kts 79°
2026-05-07 13:26 24.12930 61.68348 34736 ft 511 kts 79°
2026-05-07 13:26 24.14044 61.76037 34740 ft 511 kts 79°
2026-05-07 13:27 24.15139 61.83728 34734 ft 511 kts 80°
2026-05-07 13:27 24.16177 61.91440 34739 ft 511 kts 80°
2026-05-07 13:28 24.17217 61.99152 34739 ft 511 kts 80°
2026-05-07 13:28 24.18251 62.06800 34739 ft 511 kts 80°
2026-05-07 13:29 24.19289 62.14508 34734 ft 512 kts 80°
2026-05-07 13:29 24.20324 62.22227 34736 ft 512 kts 80°
2026-05-07 13:30 24.21353 62.29939 34733 ft 512 kts 80°
2026-05-07 13:30 24.22380 62.37655 34728 ft 512 kts 80°
2026-05-07 13:31 24.23404 62.45384 34732 ft 512 kts 80°
2026-05-07 13:31 24.24423 62.53108 34730 ft 512 kts 80°
2026-05-07 13:32 24.25433 62.60791 34729 ft 512 kts 80°
2026-05-07 13:32 24.26445 62.68523 34732 ft 512 kts 80°
2026-05-07 13:33 24.27455 62.76267 34725 ft 513 kts 80°
2026-05-07 13:33 24.28459 62.83996 34728 ft 513 kts 80°
2026-05-07 13:34 24.29959 62.95604 34727 ft 513 kts 80°
2026-05-07 13:35 24.30954 63.03349 34724 ft 513 kts 80°
2026-05-07 13:35 24.31947 63.11096 34722 ft 513 kts 80°
2026-05-07 13:36 24.32928 63.18793 34721 ft 513 kts 80°
2026-05-07 13:36 24.33913 63.26545 34723 ft 513 kts 80°
2026-05-07 13:37 24.34892 63.34292 34723 ft 513 kts 80°
2026-05-07 13:37 24.35868 63.42038 34723 ft 513 kts 81°
2026-05-07 13:38 24.36841 63.49801 34726 ft 513 kts 81°
2026-05-07 13:38 24.37809 63.57553 34725 ft 513 kts 81°
2026-05-07 13:39 24.38767 63.65257 34726 ft 513 kts 81°
2026-05-07 13:39 24.39727 63.73011 34723 ft 513 kts 81°
2026-05-07 13:40 24.40685 63.80778 34731 ft 513 kts 81°
2026-05-07 13:40 24.41639 63.88552 34725 ft 514 kts 81°
2026-05-07 13:41 24.42588 63.96317 34729 ft 514 kts 81°
2026-05-07 13:41 24.43535 64.04098 34733 ft 514 kts 81°
2026-05-07 13:42 24.44472 64.11830 34736 ft 514 kts 81°
2026-05-07 13:42 24.45412 64.19627 34446 ft 515 kts 81°
2026-05-07 13:42 24.45881 64.23524 34214 ft 515 kts 81°
2026-05-07 13:43 24.46348 64.27418 33997 ft 515 kts 80°
2026-05-07 13:43 24.46815 64.31325 33774 ft 516 kts 80°
2026-05-07 13:43 24.47282 64.35230 33524 ft 516 kts 80°
2026-05-07 13:43 24.47747 64.39133 33269 ft 516 kts 80°
2026-05-07 13:44 24.48213 64.43045 33021 ft 516 kts 80°
2026-05-07 13:44 24.48677 64.46956 32767 ft 516 kts 80°
2026-05-07 13:44 24.49140 64.50866 32518 ft 517 kts 80°
2026-05-07 13:44 24.49602 64.54774 32272 ft 517 kts 81°
2026-05-07 13:45 24.50063 64.58692 32029 ft 517 kts 81°
2026-05-07 13:45 24.50517 64.62553 31793 ft 517 kts 81°
2026-05-07 13:45 24.50976 64.66468 31552 ft 517 kts 81°
2026-05-07 13:45 24.51435 64.70385 31319 ft 516 kts 81°
2026-05-07 13:46 24.51892 64.74295 31080 ft 514 kts 81°
2026-05-07 13:46 24.52346 64.78184 30836 ft 512 kts 80°
2026-05-07 13:46 24.52796 64.82053 30616 ft 509 kts 80°
2026-05-07 13:46 24.53119 64.85919 30385 ft 509 kts 83°
2026-05-07 13:47 24.53411 64.89782 30157 ft 506 kts 83°
2026-05-07 13:47 24.53719 64.93629 29934 ft 504 kts 83°
2026-05-07 13:47 24.54029 64.97465 29687 ft 502 kts 83°
2026-05-07 13:47 24.54333 65.01274 29420 ft 500 kts 83°
2026-05-07 13:48 24.54628 65.05026 29156 ft 497 kts 83°
2026-05-07 13:48 24.54922 65.08799 28894 ft 495 kts 83°
2026-05-07 13:48 24.55213 65.12553 28638 ft 492 kts 82°
2026-05-07 13:48 24.55503 65.16300 28381 ft 490 kts 82°
2026-05-07 13:49 24.55789 65.20024 28126 ft 487 kts 82°
2026-05-07 13:49 24.56074 65.23727 27874 ft 485 kts 82°
2026-05-07 13:49 24.56355 65.27410 27624 ft 483 kts 82°
2026-05-07 13:49 24.56635 65.31084 27372 ft 481 kts 82°
2026-05-07 13:50 24.56912 65.34731 27127 ft 479 kts 82°
2026-05-07 13:50 24.57095 65.37144 26971 ft 477 kts 82°
2026-05-07 13:50 24.57461 65.41986 26641 ft 474 kts 82°
2026-05-07 13:50 24.57641 65.44374 26480 ft 472 kts 82°
2026-05-07 13:51 24.57911 65.47967 26241 ft 470 kts 82°
2026-05-07 13:51 24.58178 65.51532 26002 ft 468 kts 82°
2026-05-07 13:51 24.58444 65.55093 25772 ft 466 kts 82°
2026-05-07 13:51 24.58708 65.58640 25536 ft 463 kts 82°
2026-05-07 13:52 24.58966 65.62120 25315 ft 461 kts 82°
2026-05-07 13:52 24.59225 65.65624 25084 ft 459 kts 82°
2026-05-07 13:52 24.59482 65.69122 24859 ft 457 kts 82°
2026-05-07 13:52 24.59736 65.72592 24638 ft 455 kts 82°
2026-05-07 13:53 24.59990 65.76045 24411 ft 453 kts 82°
2026-05-07 13:53 24.60241 65.79484 24196 ft 450 kts 82°
2026-05-07 13:53 24.60491 65.82908 23974 ft 448 kts 82°
2026-05-07 13:53 24.60739 65.86317 23761 ft 446 kts 82°
2026-05-07 13:54 24.60984 65.89710 23545 ft 444 kts 82°
2026-05-07 13:54 24.61228 65.93080 23335 ft 442 kts 82°
2026-05-07 13:54 24.61470 65.96438 23079 ft 440 kts 82°
2026-05-07 13:54 24.61710 65.99782 22812 ft 437 kts 82°
2026-05-07 13:55 24.61948 66.03103 22563 ft 435 kts 82°
2026-05-07 13:55 24.62184 66.06417 22307 ft 433 kts 82°
2026-05-07 13:55 24.62418 66.09708 22060 ft 431 kts 82°
2026-05-07 13:55 24.62650 66.12982 21807 ft 428 kts 82°
2026-05-07 13:56 24.62880 66.16239 21563 ft 426 kts 82°
2026-05-07 13:56 24.63108 66.19478 21316 ft 424 kts 82°
2026-05-07 13:56 24.63332 66.22659 21072 ft 423 kts 82°
2026-05-07 13:56 24.63557 66.25875 20837 ft 421 kts 82°
2026-05-07 13:57 24.63781 66.29087 20596 ft 419 kts 82°
2026-05-07 13:57 24.64003 66.32277 20308 ft 417 kts 82°
2026-05-07 13:57 24.64224 66.35460 19796 ft 417 kts 82°
2026-05-07 13:57 24.64444 66.38635 19270 ft 414 kts 82°
2026-05-07 13:58 24.64660 66.41774 18756 ft 409 kts 82°
2026-05-07 13:58 24.64871 66.44852 18232 ft 403 kts 82°
2026-05-07 13:58 24.65079 66.47899 17640 ft 399 kts 83°
2026-05-07 13:58 24.65282 66.50907 17198 ft 389 kts 82°
2026-05-07 13:59 24.65480 66.53855 16704 ft 382 kts 82°
2026-05-07 13:59 24.65674 66.56717 16228 ft 376 kts 82°
2026-05-07 13:59 24.65866 66.59554 15742 ft 369 kts 82°
2026-05-07 13:59 24.66054 66.62351 15277 ft 363 kts 82°
2026-05-07 14:00 24.66239 66.65098 14912 ft 358 kts 82°
2026-05-07 14:00 24.66432 66.67902 14791 ft 376 kts 82°
2026-05-07 14:00 24.66630 66.70788 14754 ft 378 kts 82°
2026-05-07 14:00 24.66821 66.73663 14522 ft 375 kts 82°
2026-05-07 14:01 24.67009 66.76516 14082 ft 373 kts 82°
2026-05-07 14:01 24.67195 66.79345 13534 ft 369 kts 82°
2026-05-07 14:01 24.67381 66.82150 12863 ft 367 kts 82°
2026-05-07 14:01 24.67566 66.84933 12203 ft 364 kts 82°
2026-05-07 14:02 24.67750 66.87705 11560 ft 361 kts 83°
2026-05-07 14:02 24.67932 66.90455 10928 ft 359 kts 83°
2026-05-07 14:02 24.68110 66.93181 10330 ft 356 kts 83°
2026-05-07 14:02 24.68282 66.95844 10108 ft 340 kts 83°
2026-05-07 14:03 24.68440 66.98337 9973 ft 323 kts 83°
2026-05-07 14:03 24.68593 67.00739 9832 ft 307 kts 83°
2026-05-07 14:03 24.68748 67.03028 9568 ft 294 kts 81°
2026-05-07 14:03 24.69193 67.05198 9015 ft 289 kts 67°
2026-05-07 14:04 24.70072 67.07161 8440 ft 286 kts 55°
2026-05-07 14:04 24.71129 67.09011 7919 ft 284 kts 55°
2026-05-07 14:04 24.72167 67.10869 7340 ft 285 kts 56°
2026-05-07 14:04 24.73190 67.12736 6828 ft 284 kts 57°
2026-05-07 14:05 24.74209 67.14610 6243 ft 286 kts 58°
2026-05-07 14:05 24.75227 67.16493 5670 ft 286 kts 58°
2026-05-07 14:05 24.76241 67.18377 5121 ft 285 kts 58°
2026-05-07 14:05 24.77250 67.20253 4573 ft 285 kts 58°
2026-05-07 14:06 24.78245 67.22104 3964 ft 286 kts 58°
2026-05-07 14:06 24.79266 67.23997 3318 ft 288 kts 58°
2026-05-07 14:06 24.80270 67.25862 3060 ft 276 kts 58°
2026-05-07 14:06 24.81229 67.27646 3008 ft 265 kts 59°
2026-05-07 14:07 24.82146 67.29353 3000 ft 254 kts 58°
2026-05-07 14:07 24.83029 67.30997 3005 ft 247 kts 58°
2026-05-07 14:07 24.83912 67.32634 3010 ft 252 kts 59°
2026-05-07 14:07 24.84805 67.34305 3003 ft 253 kts 59°
2026-05-07 14:08 24.85727 67.35942 2987 ft 250 kts 51°
2026-05-07 14:08 24.87053 67.37133 3001 ft 244 kts 23°
2026-05-07 14:08 24.88637 67.37496 3001 ft 223 kts 352°
2026-05-07 14:08 24.90044 67.36975 3017 ft 213 kts 320°
2026-05-07 14:09 24.91057 67.35823 3003 ft 209 kts 303°
2026-05-07 14:09 24.91990 67.34588 2960 ft 207 kts 306°
2026-05-07 14:09 24.92960 67.33434 2750 ft 207 kts 309°
2026-05-07 14:09 24.93776 67.32192 2591 ft 194 kts 286°
2026-05-07 14:10 24.93975 67.30792 2404 ft 180 kts 265°
2026-05-07 14:10 24.93817 67.29457 2185 ft 172 kts 256°
2026-05-07 14:10 24.93536 67.28208 1980 ft 163 kts 252°
2026-05-07 14:10 24.93261 67.27075 1775 ft 143 kts 252°
2026-05-07 14:11 24.93001 67.26024 1616 ft 148 kts 251°
2026-05-07 14:11 24.92720 67.24910 1415 ft 149 kts 252°
2026-05-07 14:11 24.92456 67.23831 1217 ft 142 kts 250°
2026-05-07 14:11 24.92193 67.22795 1046 ft 143 kts 251°
2026-05-07 14:12 24.91929 67.21729 873 ft 148 kts 252°
2026-05-07 14:12 24.91653 67.20635 679 ft 145 kts 253°
2026-05-07 14:12 24.91387 67.19578 459 ft 148 kts 254°
2026-05-07 14:12 24.91158 67.18502 296 ft 141 kts 253°
2026-05-07 14:13 24.90879 67.17476 135 ft 136 kts 252°
2026-05-07 14:13 24.90641 67.16550 103 ft 112 kts 254°
2026-05-07 14:13 24.90476 67.15896 98 ft 67 kts 255°
2026-05-07 14:13 24.90379 67.15522 96 ft 43 kts 254°
2026-05-07 14:14 24.90304 67.15236 92 ft 34 kts 253°
2026-05-07 14:14 24.90235 67.15037 91 ft 27 kts 241°
2026-05-07 14:14 24.90130 67.14903 93 ft 14 kts 222°
2026-05-07 14:14 24.90047 67.14886 91 ft 11 kts 152°
2026-05-07 14:15 24.90037 67.14947 91 ft 8 kts 82°
2026-05-07 14:15 24.90050 67.15011 90 ft 9 kts 76°
2026-05-07 14:15 24.90067 67.15081 93 ft 10 kts 75°
2026-05-07 14:15 24.90086 67.15158 94 ft 12 kts 74°
2026-05-07 14:16 24.90112 67.15260 93 ft 16 kts 74°
2026-05-07 14:16 24.90145 67.15390 94 ft 19 kts 75°
2026-05-07 14:16 24.90182 67.15542 96 ft 21 kts 75°
2026-05-07 14:16 24.90219 67.15699 94 ft 21 kts 75°
2026-05-07 14:17 24.90260 67.15854 96 ft 21 kts 72°
2026-05-07 14:17 24.90300 67.15998 98 ft 16 kts 73°
2026-05-07 14:17 24.90331 67.16121 98 ft 17 kts 74°
2026-05-07 14:17 24.90364 67.16249 99 ft 18 kts 74°
2026-05-07 14:18 24.90357 67.16357 102 ft 11 kts 141°
2026-05-07 14:18 24.90307 67.16399 99 ft 9 kts 124°
2026-05-07 14:18 24.90305 67.16463 100 ft 9 kts 77°
2026-05-07 14:18 24.90323 67.16528 100 ft 9 kts 74°
2026-05-07 14:19 24.90324 67.16550 101 ft 0 kts 96°
2026-05-07 14:19 24.90321 67.16553 101 ft 1 kts 112°
2026-05-07 14:19 24.90311 67.16555 102 ft 1 kts 150°
2026-05-07 14:19 24.90289 67.16565 102 ft 5 kts 156°
2026-05-07 14:20 24.90244 67.16580 101 ft 5 kts 167°
2026-05-07 14:20 24.90237 67.16582 101 ft 0 kts 163°